Location: Izdebno
(52.6670°N, 16.2170°E)
Time: 20:26:38
(UTC+02:00)

SR - Pass Details

Date: 29 February 2024
Orbit: 577 x 862 km, 66.7° (Epoch: 20 April)

Event Time Altitude Azimuth Distance (km) Brightness Sun altitude
Rises 19:27:34 0° 309° (NW) 3,347 ? -18.1°
Reaches altitude 10° 19:30:45 10° 326° (NW) 2,365 ? -18.6°
Maximum altitude 19:34:41 20° 13° (NNE) 1,712 ? -19.1°
Enters shadow 19:36:48 16° 43° (NE) 1,876 ? -19.4°
